[[{"header":{"parameterUnit":"m.s-1","parameterCategory":1,"la1":30.2991,"la2":30.254,"lo1":-89.0895,"lo2":-89.0444,"dy":0.0017,"dx":0.0017,"nx":28,"ny":28,"refTime":"2024-06-20T21:00:00:Z","depth":0,"parameterNumber":2,"parameterNumberName":"U-component_of_WINDS"},"data":[0,0,0,0,0,0,0,0,0,0,0,0,0,0,0,0,0,0,0,0,0,0,0,0,0,0,0,0,0,0,0,0,0,0,0,0,0,0,0,0,0,0,0,0,0,0,0,0,0,0,0,0,0,0,0,0,0,0,-1.6974,-1.6973,0,-1.6921,-1.692,-1.692,-1.6819,-1.6817,-1.6815,-1.6813,-1.676,-1.676,-1.6761,0,0,0,0,0,0,0,0,0,0,0,0,0,-1.699,-1.6991,-1.6974,-1.6973,-1.6973,-1.6921,-1.692,-1.692,-1.6819,-1.6817,-1.6814,-1.6812,-1.676,-1.676,-1.6761,0,0,0,0,0,0,0,0,0,0,0,0,0,-1.6965,-1.6991,-1.6974,-1.6916,-1.6911,-1.6921,-1.692,-1.6919,-1.6819,-1.6816,-1.6813,-1.6811,-1.6759,-1.676,-1.6761,-1.6824,0,0,-1.6763,-1.6763,0,0,0,0,0,0,0,0,-1.6967,-1.6965,-1.6925,-1.692,-1.6914,-1.6873,-1.6906,-1.6887,-1.682,-1.6854,-1.6813,-1.6809,-1.68,-1.6797,-1.6794,-1.6821,-1.6819,-1.6763,-1.6763,-1.6763,-1.6764,0,0,0,0,0,0,0,-1.6968,-1.6966,-1.6953,-1.6925,-1.6918,-1.6894,-1.6887,-1.6902,-1.6844,-1.6851,-1.6843,-1.6838,-1.6796,-1.6793,-1.6792,-1.6818,-1.6763,-1.6763,-1.6764,-1.6764,-1.6896,-1.6899,0,0,0,0,0,0,-1.6978,-1.6968,-1.6955,-1.6951,-1.6933,-1.6896,-1.6888,-1.6889,-1.6844,-1.6834,-1.6841,-1.6834,-1.6794,-1.6791,-1.679,-1.6861,-1.6763,-1.6764,-1.6764,-1.6893,-1.6897,-1.69,0,0,0,0,0,0,-1.6979,-1.6978,-1.6957,-1.6958,-1.6953,-1.6899,-1.6901,-1.689,-1.6887,-1.6836,-1.6826,-1.6849,-1.6791,-1.6789,-1.6816,-1.6858,-1.6764,-1.6765,-1.689,-1.6894,-1.6899,-1.7004,0,0,0,0,0,0,-1.698,-1.6979,-1.7002,-1.6959,-1.6954,-1.6984,-1.6903,-1.6891,-1.6888,-1.6878,-1.6841,-1.6832,-1.6789,-1.6816,-1.6817,-1.6857,-1.6765,-1.6886,-1.6892,-1.6897,-1.6997,-1.7012,-1.7025,0,0,0,0,0,-1.6981,-1.7034,-1.7004,-1.7003,-1.6981,-1.6987,-1.6984,-1.6933,-1.6892,-1.6915,-1.6883,-1.6833,-1.6853,-1.682,-1.682,-1.6861,-1.6883,-1.689,-1.6897,-1.6991,-1.7009,-1.7025,0,0,0,0,0,0,-1.7083,-1.7027,-1.6993,-1.7033,-1.7016,-1.697,-1.6997,-1.6954,-1.6948,-1.6939,-1.6877,-1.6869,-1.6905,-1.6885,-1.6849,-1.692,-1.686,-1.6868,-1.6931,-1.6948,-1.6962,-1.6966,-1.6766,0,0,0,0,0,-1.7111,-1.7119,-1.707,-1.7111,-1.7103,-1.7052,-1.7053,-1.7015,-1.6994,-1.6986,-1.6956,-1.6938,-1.6941,-1.6943,-1.6943,-1.6994,-1.6984,-1.7022,-1.7036,-1.7048,-1.7055,-1.7081,-1.7098,-1.6924,-1.6923,-1.6923,0,0,-1.7167,-1.7137,-1.7147,-1.713,-1.7112,-1.7123,-1.7046,-1.7061,-1.7069,-1.6989,-1.7013,-1.6991,-1.6967,-1.7007,-1.7022,-1.6991,-1.7101,-1.7057,-1.7067,-1.7067,-1.709,-1.7107,-1.7122,-1.6928,-1.6927,-1.6927,0,0,-1.7275,-1.7254,-1.7285,-1.7269,-1.7242,-1.7208,-1.7216,-1.7176,-1.7158,-1.7182,-1.7122,-1.7131,-1.7136,-1.7121,-1.7115,-1.722,-1.7174,-1.7221,-1.7295,-1.7321,-1.7335,-1.7347,-1.7384,-1.7398,-1.7229,-1.7229,-1.7229,0,-1.7349,-1.7362,-1.7307,-1.7326,-1.7321,-1.7249,-1.7281,-1.7268,-1.7243,-1.7241,-1.7207,-1.7212,-1.7191,-1.7227,-1.7252,-1.7249,-1.7257,-1.7225,-1.7337,-1.7348,-1.7359,-1.7394,-1.7408,-1.7235,-1.7234,-1.7233,-1.7233,0,-1.7455,-1.7465,-1.7494,-1.7472,-1.747,-1.7495,-1.7445,-1.745,-1.7413,-1.7383,-1.7408,-1.738,-1.7373,-1.7379,-1.7343,-1.741,-1.7392,-1.7348,-1.7287,-1.7382,-1.7414,-1.7427,-1.7243,-1.7241,-1.7239,-1.7238,0,0,-1.7625,-1.7572,-1.7584,-1.7573,-1.7539,-1.7546,-1.7569,-1.7562,-1.7568,-1.7553,-1.7571,-1.7578,-1.7538,-1.753,-1.7492,-1.7516,-1.7601,-1.7469,-1.7467,-1.7495,-1.7674,-1.7707,-1.7724,-1.7571,-1.7573,-1.7575,-1.7676,0,-1.7726,-1.7761,-1.7712,-1.7759,-1.7768,-1.7701,-1.7721,-1.7703,-1.7675,-1.768,-1.765,-1.7656,-1.7602,-1.7597,-1.7617,-1.7587,-1.7636,-1.7579,-1.7587,-1.7588,-1.7595,-1.774,-1.7775,-1.7872,-1.7688,-1.769,-1.7692,0,-1.7848,-1.7839,-1.7887,-1.785,-1.7853,-1.7871,-1.7861,-1.7867,-1.7845,-1.7824,-1.7816,-1.7771,-1.7792,-1.7733,-1.7761,-1.7723,-1.7724,-1.771,-1.7712,-1.7711,-1.7646,-1.7743,-1.7901,-1.7916,-1.7711,-1.771,-1.7708,0,-1.7968,-1.7969,-1.7997,-1.799,-1.7948,-1.7963,-1.7946,-1.7922,-1.7921,-1.7912,-1.7911,-1.7906,-1.7903,-1.79,-1.7855,-1.7816,-1.7889,-1.7826,-1.7872,-1.7874,-1.789,-1.789,-1.8051,-1.7892,-1.7891,-1.7891,-1.7891,0,-1.8086,-1.8118,-1.805,-1.8068,-1.8102,-1.8046,-1.8082,-1.8058,-1.8037,-1.805,-1.7991,-1.8004,-1.7944,-1.7951,-1.7916,-1.7945,-1.7944,-1.7928,-1.7918,-1.7933,-1.7935,-1.7933,-1.7925,-1.7895,-1.7894,-1.7893,-1.7893,0,-1.8226,-1.8182,-1.8208,-1.8167,-1.8157,-1.8184,-1.8149,-1.8164,-1.8133,-1.815,-1.8151,-1.8103,-1.8108,-1.8063,-1.806,-1.8036,-1.8082,-1.806,-1.8089,-1.8082,-1.8131,-1.8128,-1.8297,-1.8316,-1.8144,-1.8146,-1.8148,0,-1.8304,-1.8326,-1.8288,-1.8291,-1.8278,-1.8285,-1.8284,-1.823,-1.8232,-1.8209,-1.8228,-1.8228,-1.8225,-1.8237,-1.8202,-1.82,-1.8178,-1.8238,-1.8177,-1.8192,-1.8179,-1.8179,-1.8181,-1.825,-1.8252,-1.8254,-1.8256,0,-1.8447,-1.8424,-1.8424,-1.8418,-1.8418,-1.841,-1.8398,-1.8405,-1.8347,-1.8352,-1.8356,-1.8354,-1.8351,-1.8353,-1.8343,-1.8327,-1.8282,-1.8275,-1.8285,-1.8301,-1.8317,-1.8309,-1.8124,-1.8271,-1.827,-1.8268,-1.8268,-1.8267,-1.8558,-1.8576,-1.8551,-1.8553,-1.8539,-1.853,-1.8542,-1.8513,-1.8515,-1.8508,-1.8477,-1.8488,-1.8466,-1.8449,-1.8438,-1.8445,-1.8417,-1.8432,-1.8436,-1.8441,-1.845,-1.8316,-1.8444,-1.8443,-1.8443,-1.8442,-1.8442,0,-1.8699,-1.868,-1.8683,-1.8668,-1.867,-1.8627,-1.8613,-1.8618,-1.8627,-1.8611,-1.861,-1.8616,-1.8617,-1.8583,-1.858,-1.8593,-1.8573,-1.8594,-1.8593,-1.859,-1.8475,-1.8466,-1.8611,-1.8611,-1.8611,-1.8611,-1.8611,-1.8611,-1.8772,-1.8799,-1.8774,-1.8794,-1.8775,-1.8784,-1.878,-1.8771,-1.8758,-1.8767,-1.8767,-1.8745,-1.8722,-1.8717,-1.8717,-1.8707,-1.8709,-1.8738,-1.8721,-1.8614,-1.8598,-1.8582,-1.8574,-1.8739,-1.8739,-1.8835,-1.8836,-1.8837]},{"header":{"parameterUnit":"m.s-1","parameterCategory":1,"la1":30.2991,"la2":30.254,"lo1":-89.0895,"lo2":-89.0444,"dy":0.0017,"dx":0.0017,"nx":28,"ny":28,"refTime":"2024-06-20T21:00:00:Z","depth":0,"parameterNumber":3,"parameterNumberName":"V-component_of_WINDS"},"data":[0,0,0,0,0,0,0,0,0,0,0,0,0,0,0,0,0,0,0,0,0,0,0,0,0,0,0,0,0,0,0,0,0,0,0,0,0,0,0,0,0,0,0,0,0,0,0,0,0,0,0,0,0,0,0,0,0,0,3.6803,3.6803,0,3.6835,3.6836,3.6836,3.6849,3.6849,3.6848,3.6848,3.6878,3.6879,3.688,0,0,0,0,0,0,0,0,0,0,0,0,0,3.6748,3.6749,3.6803,3.6803,3.6803,3.6835,3.6836,3.6836,3.6849,3.6849,3.6848,3.6848,3.6878,3.6879,3.688,0,0,0,0,0,0,0,0,0,0,0,0,0,3.6775,3.675,3.6802,3.6814,3.6815,3.6835,3.6836,3.6836,3.6849,3.6849,3.6848,3.6848,3.6878,3.6879,3.688,3.689,0,0,3.6884,3.6885,0,0,0,0,0,0,0,0,3.6774,3.6777,3.6812,3.6813,3.6814,3.6838,3.6827,3.6854,3.6849,3.6836,3.6848,3.6848,3.6865,3.6867,3.6873,3.6892,3.6893,3.6884,3.6885,3.6885,3.6886,0,0,0,0,0,0,0,3.6772,3.6776,3.6815,3.6812,3.6814,3.6816,3.682,3.6832,3.685,3.6837,3.6838,3.6842,3.6865,3.6872,3.6874,3.6893,3.6884,3.6885,3.6886,3.6887,3.6923,3.6923,0,0,0,0,0,0,3.6769,3.6774,3.6814,3.6816,3.6794,3.6817,3.6821,3.683,3.685,3.6853,3.6842,3.6842,3.687,3.6872,3.6875,3.6889,3.6885,3.6887,3.6887,3.6922,3.6923,3.6923,0,0,0,0,0,0,3.6767,3.6772,3.6813,3.6796,3.6801,3.6818,3.6828,3.6831,3.6838,3.6854,3.6857,3.6846,3.687,3.6873,3.6887,3.689,3.6887,3.6888,3.6922,3.6923,3.6923,3.6916,0,0,0,0,0,0,3.6766,3.6772,3.6776,3.6796,3.6802,3.6825,3.6828,3.6832,3.684,3.6841,3.6858,3.6861,3.687,3.6885,3.6888,3.6892,3.6889,3.6922,3.6922,3.6923,3.6916,3.6916,3.6916,0,0,0,0,0,3.6764,3.6772,3.6776,3.6781,3.6808,3.6825,3.6829,3.684,3.6841,3.6845,3.6856,3.686,3.6889,3.6886,3.689,3.6894,3.6922,3.6922,3.6923,3.6916,3.6916,3.6916,0,0,0,0,0,0,3.6751,3.6775,3.678,3.6795,3.6808,3.6827,3.6833,3.6839,3.6852,3.6852,3.6864,3.6868,3.6881,3.6889,3.6885,3.6905,3.6906,3.6907,3.69,3.69,3.69,3.6897,3.6891,0,0,0,0,0,3.675,3.6763,3.6783,3.6794,3.6801,3.6816,3.6823,3.6831,3.6845,3.685,3.6862,3.6874,3.6886,3.6893,3.6905,3.6917,3.6921,3.6922,3.6922,3.6922,3.6923,3.693,3.6931,3.6924,3.6924,3.6924,0,0,3.6748,3.6763,3.677,3.6792,3.6803,3.6815,3.682,3.6833,3.6842,3.6852,3.6866,3.6875,3.6889,3.6902,3.6909,3.6909,3.6926,3.6923,3.6922,3.6923,3.6931,3.6931,3.6932,3.6924,3.6924,3.6924,0,0,3.675,3.6763,3.6774,3.6786,3.6803,3.6813,3.6816,3.6835,3.6842,3.6856,3.6864,3.6874,3.6895,3.6905,3.6912,3.692,3.6925,3.6923,3.6923,3.693,3.6931,3.6931,3.6934,3.6935,3.6924,3.6924,3.6924,0,3.6745,3.6765,3.6779,3.6791,3.6801,3.6812,3.6823,3.6833,3.6853,3.6859,3.6859,3.6886,3.6896,3.6912,3.6914,3.692,3.6923,3.6921,3.693,3.6931,3.6931,3.6934,3.6935,3.6924,3.6924,3.6924,3.6924,0,3.6758,3.6771,3.6778,3.6799,3.6809,3.682,3.6835,3.6844,3.6851,3.6861,3.6875,3.6889,3.6904,3.6908,3.6914,3.6925,3.6925,3.6928,3.6928,3.6931,3.6934,3.6935,3.6923,3.6923,3.6924,3.6924,0,0,3.6752,3.6781,3.6783,3.6793,3.6814,3.6824,3.6836,3.6852,3.6859,3.6873,3.6883,3.69,3.6903,3.6912,3.692,3.6926,3.6931,3.6928,3.6929,3.6928,3.6944,3.6942,3.6943,3.6935,3.6935,3.6936,3.6943,0,3.6757,3.6781,3.6794,3.6811,3.6824,3.6836,3.6846,3.6859,3.6869,3.6881,3.6891,3.6903,3.6906,3.6912,3.6919,3.6929,3.6935,3.6929,3.6944,3.6944,3.694,3.6944,3.6942,3.6948,3.6944,3.6944,3.6944,0,3.6766,3.6781,3.68,3.6821,3.6826,3.6836,3.6852,3.6863,3.6878,3.6885,3.6896,3.6904,3.6916,3.6916,3.6933,3.6929,3.6936,3.6942,3.6943,3.6944,3.6944,3.6946,3.695,3.6951,3.6946,3.6946,3.6946,0,3.676,3.6785,3.68,3.6808,3.6832,3.6838,3.6848,3.6864,3.6873,3.6886,3.6892,3.6907,3.6914,3.6925,3.6936,3.6936,3.6952,3.6954,3.6958,3.6957,3.696,3.696,3.6966,3.6965,3.6965,3.6965,3.6965,0,3.6764,3.6775,3.6798,3.6807,3.682,3.6835,3.6847,3.6858,3.6871,3.6882,3.6893,3.6902,3.6917,3.6928,3.6937,3.695,3.6953,3.6958,3.6961,3.6958,3.6957,3.6962,3.6962,3.6965,3.6965,3.6965,3.6965,0,3.6759,3.6775,3.6792,3.6814,3.682,3.6828,3.6846,3.6855,3.6866,3.688,3.6884,3.69,3.6914,3.6927,3.6945,3.6951,3.6964,3.6967,3.6959,3.6961,3.6964,3.6963,3.6973,3.6975,3.6973,3.6973,3.6973,0,3.6761,3.677,3.6794,3.6802,3.6813,3.6827,3.6836,3.6851,3.6861,3.688,3.6886,3.6901,3.6914,3.6936,3.6949,3.6963,3.6966,3.6968,3.6968,3.6965,3.6966,3.6965,3.6966,3.6968,3.6968,3.6968,3.6968,0,3.6762,3.6769,3.6784,3.6802,3.6814,3.6828,3.6842,3.6848,3.6866,3.6876,3.6891,3.6901,3.6921,3.6935,3.6951,3.696,3.6967,3.6968,3.697,3.6966,3.6962,3.6964,3.6959,3.6967,3.6968,3.6968,3.6968,3.6968,3.676,3.6769,3.6788,3.6804,3.6817,3.683,3.684,3.6853,3.6866,3.6884,3.6892,3.6907,3.6923,3.6945,3.6954,3.6965,3.6967,3.6969,3.697,3.697,3.6969,3.696,3.6968,3.6968,3.6968,3.6968,3.6968,0,3.6762,3.6775,3.6789,3.681,3.6823,3.683,3.6846,3.6856,3.687,3.6884,3.6897,3.6915,3.6929,3.6944,3.6959,3.6966,3.6969,3.6969,3.6968,3.697,3.6967,3.6964,3.6966,3.6966,3.6966,3.6966,3.6966,3.6966,3.6764,3.678,3.679,3.6813,3.6825,3.6842,3.685,3.6863,3.6874,3.6894,3.6907,3.6917,3.6931,3.6948,3.6961,3.6965,3.697,3.6969,3.6974,3.697,3.6971,3.6971,3.6968,3.697,3.697,3.6976,3.6976,3.6976]}]]